{"data":{"norad_id":45141,"intl_designator":"2020-008L","name":"ONEWEB-0032","alt_names":[],"object_type":"PAYLOAD","status":"ACTIVE","operator":null,"country":"UK","launch_date":"2020-02-06","launch_site_code":"TYMSC","launch_vehicle":null,"mission":null,"orbit_class":"UNKNOWN","rcs_meters":null,"size_class":null,"mass_kg":null,"dimensions":null,"purposes":["comms"],"wikipedia_slug":null,"has_3d_model":false,"image_url":null,"decayed_at":null,"tle_current":{"epoch":"2026-09-20T03:25:57.912096Z","epoch_age_seconds":45247,"freshness":"FRESH","line1":"1 45141U 20008L   26263.14303139  .00000321  00000+0  88386-3 0  9999","line2":"2 45141  87.8910  17.3673 0002189 106.0256 254.1112 13.10376585320737","mean_motion":13.10376585,"eccentricity":0.0002189,"inclination_deg":87.891,"raan_deg":17.3673,"arg_perigee_deg":106.0256,"mean_anomaly_deg":254.1112,"bstar":0.00088386,"rev_number":32073,"period_min":109.89207350649,"perigee_km":1220.0389769186,"apogee_km":1223.3661866876,"semimajor_km":7599.8395818031,"source":"CELESTRAK","updated_at":"2026-09-20T09:00:44.546772Z"}}}